EW9054 Weather Reports


Display with metric or nautical units.
time (UTC)temp
F
wind
direction
speed
MPH
gust
MPH
rain 1hr
in
rain 24hr
in
rain mn
in
humidity
%
barometer
mb
20260906051505 69 156 0.0 0.0 0.00 0.21 0.00 100 1010.7
20260906050011 69 156 0.0 0.0 0.00 0.21 0.00 100 1010.8
20260906044503 69 156 0.0 0.0 0.00 0.21 0.00 100 1010.8
20260906043002 70 156 0.0 0.0 0.00 0.21 0.00 100 1010.7
20260906041601 69 156 0.0 0.0 0.00 0.21 0.00 100 1010.9
20260906040059 69 156 0.0 0.0 0.00 0.21 0.00 100 1011.0
20260906034558 70 156 0.0 0.0 0.00 0.21 0.21 100 1011.1
20260906033057 70 156 0.0 0.0 0.00 0.21 0.21 100 1011.3
20260906031557 70 156 0.0 0.0 0.00 0.21 0.21 100 1011.2
20260906030118 70 156 0.0 0.0 0.00 0.21 0.21 100 1011.3
20260906024554 70 156 0.0 0.0 0.00 0.21 0.21 100 1011.2
20260906023053 70 156 0.0 0.0 0.00 0.21 0.21 100 1010.9
20260906021608 70 156 0.0 0.0 0.00 0.21 0.21 100 1010.6
20260906020058 70 156 0.0 0.0 0.01 0.21 0.21 100 1010.6
20260906014551 71 156 0.0 0.0 0.01 0.21 0.21 100 1010.5
20260906013050 71 156 0.0 0.0 0.01 0.21 0.21 100 1010.5
20260906011550 71 156 0.0 0.0 0.01 0.21 0.21 100 1010.3
20260906010048 72 156 0.0 0.0 0.00 0.20 0.20 100 1010.3
20260906004548 72 156 0.0 0.0 0.01 0.20 0.20 100 1010.3
20260906003057 72 156 0.0 0.0 0.01 0.20 0.20 100 1010.2
20260906001547 72 156 0.0 0.0 0.01 0.20 0.20 99 1010.1
20260906000046 73 156 0.0 0.0 0.01 0.20 0.20 98 1009.9
20260905234553 73 156 0.0 0.0 0.01 0.19 0.19 99 1009.8
20260905233044 74 156 0.0 0.0 0.01 0.19 0.19 99 1009.6
20260905231543 74 156 0.0 0.0 0.02 0.19 0.19 99 1009.4
20260905230041 75 156 0.0 0.0 0.02 0.19 0.19 99 1009.4
20260905224543 75 156 0.0 0.0 0.02 0.18 0.18 100 1009.3
20260905223042 74 156 0.0 0.0 0.03 0.18 0.18 99 1009.2
20260905221538 74 156 0.0 0.0 0.03 0.17 0.17 99 1009.1
20260905220034 74 156 0.0 0.0 0.04 0.17 0.17 100 1009.4
20260905214531 74 156 0.0 0.0 0.04 0.16 0.16 100 1009.3
20260905213028 73 156 0.0 0.0 0.04 0.15 0.15 100 1009.8
20260905211524 72 156 0.0 0.0 0.05 0.14 0.14 100 1009.9
20260905210023 70 156 0.0 0.0 0.06 0.13 0.13 99 1010.1
20260905204520 70 156 0.0 1.0 0.07 0.12 0.12 99 1010.5
20260905203020 69 156 0.0 0.0 0.10 0.11 0.11 99 1010.5
20260905201517 69 156 0.0 0.0 0.09 0.09 0.09 98 1010.7
20260905200026 68 156 0.0 0.0 0.07 0.07 0.07 97 1010.7
20260905194515 68 156 0.0 0.0 0.05 0.05 0.05 95 1009.9
20260905193025 70 156 0.0 9.0 0.01 0.01 0.01 92 1010.4
20260905190040 91 14 4.0 12.0 0.00 0.00 0.00 66 1009.7
20260905184548 94 198 0.0 0.0 0.00 0.00 0.00 64 1009.3
20260905183041 95 267 0.0 4.0 0.00 0.00 0.00 57 1009.3
20260905181536 96 317 0.0 5.0 0.00 0.00 0.00 57 1009.6
20260905180033 95 340 5.0 12.0 0.00 0.00 0.00 58 1009.9
20260905174536 95 31 0.0 9.0 0.00 0.00 0.00 59 1010.2
20260905173027 95 322 0.0 1.0 0.00 0.00 0.00 58 1010.6
20260905171525 95 306 0.0 1.0 0.00 0.00 0.00 61 1010.9
20260905170022 94 250 1.0 5.0 0.00 0.00 0.00 62 1011.1
20260905164520 93 313 1.0 3.0 0.00 0.00 0.00 64 1011.3
20260905163016 93 284 0.0 3.0 0.00 0.00 0.00 69 1011.3
20260905161512 91 209 0.0 1.0 0.00 0.00 0.00 69 1011.6
20260905160022 90 259 0.0 5.0 0.00 0.00 0.00 71 1011.8
20260905154506 89 152 1.0 5.0 0.00 0.00 0.00 74 1011.9
20260905153003 88 90 0.0 5.0 0.00 0.00 0.00 77 1011.9
20260905151600 88 267 0.0 1.0 0.00 0.00 0.00 79 1011.9
20260905150056 86 226 0.0 3.0 0.00 0.00 0.00 82 1012.0
20260905144553 85 107 0.0 4.0 0.00 0.00 0.00 84 1012.1
20260905143049 83 217 0.0 6.0 0.00 0.00 0.00 85 1012.0
20260905141607 82 260 0.0 2.0 0.00 0.00 0.00 88 1012.2
20260905140054 81 261 0.0 3.0 0.00 0.00 0.00 90 1012.1
20260905134544 79 267 1.0 4.0 0.00 0.00 0.00 92 1012.2
20260905133048 78 234 0.0 0.0 0.00 0.00 0.00 97 1012.4
20260905131548 76 234 0.0 2.0 0.00 0.00 0.00 100 1012.5
20260905130030 75 182 0.0 1.0 0.00 0.00 0.00 100 1012.4
20260905124529 74 182 0.0 0.0 0.00 0.00 0.00 100 1012.6
20260905123028 73 182 0.0 0.0 0.00 0.00 0.00 100 1012.5
20260905121527 72 182 0.0 0.0 0.00 0.00 0.00 100 1012.5
20260905120028 72 182 0.0 0.0 0.00 0.00 0.00 100 1012.3
20260905114535 71 182 0.0 0.0 0.00 0.00 0.00 100 1012.3
20260905113024 72 182 0.0 0.0 0.00 0.00 0.00 100 1012.0
20260905111523 72 182 0.0 0.0 0.00 0.00 0.00 100 1011.8
20260905110024 72 182 0.0 0.0 0.00 0.00 0.00 99 1011.4
20260905104523 72 182 0.0 0.0 0.00 0.00 0.00 100 1011.3
20260905103031 72 182 0.0 0.0 0.00 0.00 0.00 99 1011.0
20260905101521 72 182 0.0 0.0 0.00 0.00 0.00 99 1011.0
20260905100020 72 182 0.0 0.0 0.00 0.00 0.00 99 1010.8
20260905094519 72 182 0.0 0.0 0.00 0.00 0.00 99 1010.9
20260905093017 72 182 0.0 0.0 0.00 0.00 0.00 98 1010.9
20260905091515 72 182 0.0 0.0 0.00 0.00 0.00 99 1011.0
20260905090015 72 182 0.0 0.0 0.00 0.00 0.00 98 1011.0
20260905084516 73 182 0.0 0.0 0.00 0.00 0.00 98 1011.2
20260905083111 73 182 0.0 0.0 0.00 0.00 0.00 98 1011.3
20260905081509 73 182 0.0 0.0 0.00 0.00 0.00 98 1011.3
20260905080008 73 182 0.0 0.0 0.00 0.00 0.00 98 1011.5
20260905074514 73 182 0.0 0.0 0.00 0.00 0.00 98 1011.7
20260905073005 73 182 0.0 0.0 0.00 0.00 0.00 98 1011.7
20260905071504 73 182 0.0 0.0 0.00 0.00 0.00 98 1011.8
20260905070002 74 182 0.0 0.0 0.00 0.00 0.00 97 1011.9
20260905064613 74 182 0.0 0.0 0.00 0.00 0.00 97 1012.2
20260905063100 74 182 0.0 0.0 0.00 0.00 0.00 97 1012.3
20260905061615 74 182 0.0 0.0 0.00 0.00 0.00 97 1012.4
20260905060054 75 182 0.0 0.0 0.00 0.00 0.00 96 1012.5
20260905054601 75 182 0.0 0.0 0.00 0.00 0.00 96 1012.7
20260905053051 75 182 0.0 0.0 0.00 0.00 0.00 95 1012.6